Temperature
17 17 17 17 17 17 17 17 17 17 18 18 18 18 18 18 18 18 18 18 18 18 18 18 18 18 18 18 18 18 18 18 18 18 18 18 18 18 18 18 18 18 18
17 17 17 17 17 17 17 17 17 17 17 18 18 18 18 18 18 18 18 18 18 18 18 18 18 18 18 18 18 18 18 18 18 18 18 18 18 18 18 18 18 18 18
17 17 17 17 17 17 17 17 17 17 17 17 17 17 18 17 17 18 17 17 18 18 18 18 17 18 18 18 18 18 18 18 18 18 18 18 17 18 18 18 18 18 18
17 17 17 17 17 17 17 17 17 17 17 17 17 17 17 17 17 17 17 17 17 17 17 17 17 17 17 17 17 17 17 17 17 17 17 17 17 17 17 17 18 18 18
17 17 17 17 17 17 17 17 17 17 17 17 17 17 17 17 17 17 17 17 17 17 17 17 17 17 17 17 17 17 17 17 17 17 17 17 17 17 17 17 17 17 17
17 17 17 17 17 17 17 17 17 17 17 17 17 17 17 17 17 17 17 17 17 17 17 17 17 17 17 17 17 17 17 17 17 17 17 17 17 17 17 17 17 17 17
17 17 17 17 17 17 17 17 17 17 17 17 17 17 17 17 17 17 17 17 17 17 17 17 17 17 17 17 17 17 17 17 17 17 17 17 17 17 17 17 17 17 17
17 17 17 17 17 17 17 17 17 17 17 16 17 17 17 17 16 17 16 16 16 16 16 17 17 16 16 16 16 17 17 17 17 17 17 17 17 17 17 17 17 17 17
17 17 17 17 17 17 17 17 17 17 16 16 16 16 16 16 16 16 16 16 16 16 16 16 16 16 16 16 16 16 16 16 16 16 16 16 16 16 17 17 17 17 17
17 17 17 17 16 16 16 16 16 16 16 16 16 16 16 16 16 16 16 16 16 16 16 16 16 16 16 16 16 16 16 16 16 16 16 16 16 16 16 16 16 16 16
16 16 16 16 16 16 16 16 16 16 16 16 16 16 16 16 16 16 16 16 16 16 16 16 16 16 16 16 16 16 16 16 16 16 16 16 16 16 16 16 16 16 16
16 16 16 16 16 16 16 16 16 16 16 16 16 16 16 16 16 16 16 16 16 16 16 16 16 16 16 16 16 16 15 16 16 15 16 16 16 16 16 16 16 16 16
16 16 16 16 16 16 16 16 16 16 16 16 16 16 16 16 16 16 16 16 16 16 16 16 16 15 15 15 15 15 15 15 15 15 15 15 15 15 16 16 15 16 16
16 16 16 16 16 16 16 16 16 16 16 16 16 16 16 16 16 16 16 15 15 15 15 15 15 15 15 15 15 15 15 15 15 15 15 15 15 15 15 15 15 15 15
16 16 16 16 16 16 16 16 16 16 16 16 16 16 16 16 15 15 15 15 15 15 15 15 15 15 15 15 15 15 15 15 15 15 15 15 15 15 15 15 15 15 15
16 16 16 16 16 16 16 16 16 16 16 15 15 15 15 15 15 15 15 15 15 15 15 15 15 15 15 15 15 15 15 15 15 14 14 14 14 14 14 14 15 15 15
16 16 16 16 16 16 16 16 15 15 15 15 15 15 15 15 15 15 15 15 15 15 15 15 15 15 15 14 14 14 14 14 14 14 14 14 14 14 14 14 14 14 14
16 16 16 16 16 16 15 15 15 15 15 15 15 15 15 15 15 15 15 15 15 15 15 15 15 14 14 14 14 14 14 14 14 14 14 14 14 14 14 14 14 14 14
16 16 16 16 16 15 15 15 15 15 15 15 15 15 15 15 15 15 15 14 14 15 14 14 14 14 14 14 14 14 14 14 14 14 14 14 14 14 14 14 14 14 14
16 16 16 16 16 15 15 15 15 15 15 15 15 15 15 15 15 14 14 14 14 14 14 14 14 14 14 14 14 14 13 13 13 13 13 13 13 13 13 13 13 13 13
16 16 16 16 16 15 15 15 15 15 15 15 15 15 15 15 14 14 14 14 14 14 14 14 14 14 14 14 14 13 13 13 13 13 13 13 13 13 13 13 13 13 13
16 16 16 15 15 15 15 15 15 15 15 15 15 14 14 14 14 14 14 14 14 14 14 14 14 14 13 13 13 13 13 13 13 12 13 13 13 13 13 13 13 13 13
16 16 16 15 15 15 15 15 15 15 15 15 14 14 14 14 14 14 14 14 14 14 13 13 13 13 13 13 13 13 13 12 12 12 12 12 12 12 12 12 12 13 13
16 16 15 15 15 15 15 15 15 15 15 15 14 14 14 14 14 14 14 14 14 13 13 13 13 13 13 13 13 13 13 13 12 12 12 12 12 12 12 12 12 12 12
16 15 15 15 15 15 15 15 15 15 15 14 14 14 14 14 14 14 14 14 13 13 13 13 13 13 13 13 13 13 13 13 12 12 11 11 12 12 12 12 12 12 12
16 15 15 15 15 15 15 15 15 15 14 14 14 14 14 14 14 14 14 13 13 13 13 13 13 13 13 13 13 13 13 12 12 12 12 11 11 11 12 11 12 12 11
Wind_Speed
3 5 5 5 7 8 9 9 9 10 10 10 11 11 10 10 9 9 10 10 10 10 10 10 10 10 10 10 10 10 10 9 9 9 8 7 7 7 7 7 7 6 8
2 3 4 5 6 8 8 9 9 9 10 10 10 10 10 10 9 10 10 10 11 11 11 11 11 10 11 11 11 11 11 10 9 9 9 8 7 7 7 7 7 7 8
2 3 3 5 7 8 8 9 9 9 10 10 11 10 10 10 10 11 11 11 11 11 11 11 11 11 12 11 11 11 11 11 10 10 8 7 7 7 7 7 8 8 8
2 3 3 5 7 8 9 9 10 10 11 11 11 11 11 11 11 11 11 11 11 11 11 11 11 11 11 11 11 11 11 11 10 9 7 7 6 7 7 7 7 8 7
3 4 3 6 8 8 9 10 10 10 11 12 12 12 11 11 11 11 11 11 11 11 11 11 11 11 11 11 11 11 11 11 10 9 8 7 6 7 7 7 7 7 7
4 4 4 7 8 9 9 10 11 11 11 12 12 12 12 12 12 11 11 11 11 11 11 11 10 11 11 11 11 11 10 10 9 8 8 7 6 7 7 7 7 7 7
4 4 4 7 8 8 9 9 10 11 11 12 12 12 12 12 12 12 12 12 12 11 11 11 11 11 11 11 11 10 10 9 9 8 7 6 6 6 6 6 6 6 6
4 4 4 6 7 8 9 9 10 10 11 11 12 12 11 11 11 11 11 11 11 11 11 11 11 11 11 10 10 10 10 9 8 7 6 6 7 6 6 6 6 6 6
4 4 5 5 6 7 8 9 9 10 10 11 11 11 12 12 12 11 11 11 11 12 12 12 12 11 11 10 10 10 10 10 8 6 6 6 7 7 6 6 6 6 6
4 4 4 5 6 6 6 7 8 9 10 11 11 11 12 12 12 11 11 11 12 12 12 12 12 12 11 11 11 11 10 10 8 7 6 6 7 7 7 6 6 6 6
3 3 3 4 5 5 5 6 8 8 10 10 10 11 12 11 10 10 11 12 12 13 13 13 12 12 12 12 12 11 10 8 7 6 6 7 7 6 7 7 7 6 7
1 1 2 2 3 4 4 6 7 7 8 8 8 9 9 10 10 10 12 13 13 13 14 14 14 13 11 9 10 10 8 8 7 6 6 8 7 7 7 7 8 7 7
1 1 1 2 2 3 3 5 5 6 6 7 7 8 8 8 9 10 9 10 11 11 10 11 11 10 9 8 8 8 8 7 6 6 7 9 9 9 9 9 8 8 8
1 1 1 2 3 3 3 4 4 4 4 5 6 7 7 6 6 7 7 7 8 7 8 8 7 9 9 9 8 8 8 7 7 6 7 10 10 10 9 10 10 9 9
2 1 1 2 2 2 3 3 4 3 4 4 5 6 6 5 5 5 6 7 7 7 6 6 7 7 7 7 7 8 7 8 8 8 7 10 10 10 10 10 10 9 9
2 2 2 2 2 3 3 3 3 3 4 5 4 5 6 6 5 5 5 6 6 6 6 6 6 6 6 6 7 7 7 7 7 8 8 9 11 11 10 9 9 9 9
3 2 2 3 2 3 3 2 3 3 4 4 4 4 5 6 6 5 4 4 5 6 6 6 7 6 6 6 6 6 6 7 7 7 8 8 9 10 11 10 9 8 8
3 2 2 3 3 3 2 2 3 3 4 3 3 4 5 5 6 5 4 4 5 6 5 5 5 5 6 5 5 5 5 6 7 7 8 8 8 8 10 11 11 10 9
3 3 3 3 4 3 3 3 4 4 4 3 3 4 4 5 5 5 4 4 5 5 4 4 4 4 4 5 4 5 5 5 6 7 8 8 9 9 9 10 11 12 10
3 3 3 3 4 4 3 3 3 4 3 4 3 3 4 4 5 5 4 4 5 4 4 4 5 4 4 3 5 6 5 5 6 7 7 7 8 9 10 10 9 9 11
3 3 3 3 4 4 3 2 2 1 1 2 2 3 3 4 5 5 4 4 4 4 3 4 3 5 4 3 3 4 5 5 6 6 6 6 8 9 10 9 9 8 8
4 4 3 3 4 4 3 3 2 2 1 1 2 3 3 4 4 4 4 3 3 3 4 4 3 2 2 3 2 3 3 4 5 6 5 5 6 7 8 9 9 8 8
5 5 5 4 4 4 4 4 4 4 3 2 2 2 2 3 3 4 3 3 3 3 3 2 3 3 2 2 2 3 2 0 2 4 5 5 6 5 5 6 7 8 8
5 5 4 4 4 4 5 5 5 4 2 2 1 0 1 2 2 3 3 3 3 2 2 2 2 2 3 1 2 2 2 2 2 1 3 4 4 4 5 5 6 7 8
4 4 5 4 4 4 5 6 5 3 2 1 1 2 1 1 2 2 3 3 2 2 2 2 2 2 2 2 1 1 2 2 2 2 1 3 3 3 3 4 4 5 6
2 3 4 5 3 4 5 5 5 5 4 3 2 2 1 1 1 2 2 2 2 1 2 2 2 2 2 2 2 2 2 2 2 2 1 1 2 2 2 3 3 4 5
Wind_Direction
310 313 349 27 39 46 50 55 57 60 65 66 67 71 74 76 82 89 91 92 92 92 91 90 93 94 96 100 100 99 100 101 108 109 109 109 112 113 113 112 109 103 112
291 325 14 35 44 51 54 58 59 60 64 66 67 70 73 78 86 91 92 93 94 93 93 92 93 95 97 96 95 95 96 98 104 104 102 102 106 107 109 109 109 109 110
17 3 30 49 54 57 59 64 65 64 64 65 67 68 69 72 84 89 93 94 93 92 92 91 92 94 96 95 95 94 93 92 95 96 94 87 92 100 104 109 110 110 109
55 36 50 64 62 65 65 66 70 69 65 65 68 68 69 73 81 86 91 92 90 89 89 89 90 93 95 95 93 91 91 90 88 87 78 76 85 95 97 102 108 110 107
55 45 61 74 72 71 70 70 73 70 68 66 66 67 69 73 78 83 86 87 88 87 85 86 88 89 91 92 90 89 89 87 85 78 72 72 77 91 93 96 104 106 106
58 50 58 72 73 74 72 71 72 70 70 69 65 65 66 69 72 75 79 82 86 87 85 83 85 87 89 89 87 86 86 85 78 69 67 72 80 88 89 92 97 98 103
68 55 59 70 71 72 71 72 72 71 71 70 68 67 67 68 71 74 77 78 80 84 85 82 83 85 88 88 86 84 84 84 75 68 64 73 87 91 87 92 97 97 102
84 64 63 69 73 73 72 69 70 70 71 70 68 68 67 67 69 74 77 79 80 81 83 83 84 86 87 86 85 83 79 78 72 69 66 73 88 87 83 88 92 95 99
74 61 49 54 62 69 72 71 69 67 67 67 65 64 63 63 64 69 75 78 81 82 82 81 80 80 82 83 81 81 78 75 63 62 71 75 84 81 75 77 82 88 97
56 51 47 47 51 53 62 71 73 72 69 66 65 61 57 55 57 61 69 75 78 77 76 76 74 74 77 79 78 78 76 69 60 58 60 75 82 80 75 76 80 89 91
52 41 47 51 51 51 55 64 64 66 64 61 58 53 49 44 46 56 66 73 73 71 72 73 72 71 71 73 76 76 70 62 58 56 60 72 78 80 76 75 80 92 92
59 37 55 63 61 54 54 58 55 55 57 54 53 51 49 46 49 59 61 66 68 68 69 70 70 68 67 67 68 68 64 58 54 52 62 65 69 73 75 77 80 90 92
174 70 68 72 69 64 56 60 57 58 57 54 53 57 55 49 49 53 53 53 54 59 59 61 64 61 64 67 67 65 61 58 52 47 58 63 65 69 71 76 80 88 89
123 94 85 85 80 66 69 67 64 61 57 52 51 56 61 54 49 54 56 53 53 55 58 59 64 61 62 62 66 65 58 56 47 43 55 61 64 68 72 74 74 85 87
149 164 124 97 92 80 76 72 71 65 65 64 60 60 69 67 57 56 57 57 55 58 64 64 65 63 60 60 62 61 55 50 45 41 48 57 58 60 66 71 71 77 82
180 182 144 120 110 99 91 85 78 73 76 72 63 65 75 78 72 66 61 56 53 57 66 71 71 69 62 61 56 52 50 46 44 42 42 45 53 57 58 64 70 76 73
187 176 153 152 116 109 110 106 92 84 85 71 64 70 77 81 80 79 72 63 55 60 68 70 67 67 63 59 52 48 48 43 42 41 38 37 39 46 51 56 63 69 71
158 153 165 156 126 118 113 100 92 90 86 76 74 76 79 84 91 86 77 69 65 68 68 68 63 66 60 58 52 42 43 42 40 41 41 37 35 35 39 47 52 59 65
168 162 160 145 137 132 113 91 87 85 80 78 78 78 81 87 95 92 81 75 75 72 65 73 64 69 69 62 59 47 39 39 36 42 41 38 38 38 36 40 45 49 52
165 147 153 148 143 130 106 83 70 64 59 65 69 76 88 91 92 91 83 74 79 75 65 67 73 62 63 59 66 54 40 35 40 38 34 35 37 39 40 40 38 38 45
142 137 144 149 148 136 117 113 95 74 49 46 53 67 86 96 96 94 87 79 80 79 80 81 82 71 52 40 60 45 33 37 39 34 31 36 36 35 40 39 39 38 37
172 164 155 157 156 158 154 139 122 111 83 63 48 53 67 86 94 104 102 98 90 88 78 78 85 80 49 42 74 72 28 15 19 26 28 36 31 33 38 37 36 37 40
185 185 178 174 161 159 142 114 89 70 53 43 36 36 36 78 93 97 106 105 103 105 110 103 105 106 92 35 59 108 112 167 351 5 23 31 29 30 27 29 33 33 38
201 187 173 168 162 159 147 141 137 138 143 187 174 114 45 74 91 98 107 108 109 108 119 126 113 121 126 93 43 55 105 144 132 11 356 7 20 28 22 27 26 30 36
191 173 167 158 162 160 152 153 146 138 145 129 108 97 72 54 71 91 108 109 116 120 128 119 105 112 120 129 125 108 82 71 88 127 352 342 358 3 14 18 22 28 33
166 164 160 155 165 163 161 159 158 155 151 136 129 130 112 58 42 65 102 107 120 134 150 153 141 138 132 122 128 137 147 143 154 142 169 292 336 335 359 17 20 20 29
Height
1505 1504 1504 1502 1501 1500 1499 1498 1497 1496 1496 1495 1494 1494 1494 1494 1494 1494 1495 1496 1497 1498 1498 1499 1500 1501 1502 1503 1504 1505 1506 1507 1508 1509 1510 1511 1513 1514 1514 1515 1516 1516 1517
1506 1505 1505 1503 1502 1501 1500 1500 1499 1498 1497 1496 1496 1495 1495 1494 1494 1495 1496 1497 1498 1499 1500 1500 1501 1502 1503 1504 1505 1506 1507 1508 1509 1510 1511 1512 1513 1514 1515 1515 1516 1517 1517
1507 1506 1506 1505 1504 1503 1502 1501 1500 1500 1499 1498 1498 1497 1495 1494 1495 1497 1498 1499 1500 1500 1501 1502 1503 1504 1504 1505 1506 1508 1508 1510 1511 1511 1512 1513 1514 1515 1516 1516 1517 1518 1518
1508 1507 1506 1506 1505 1504 1503 1503 1502 1501 1501 1500 1499 1498 1497 1497 1497 1498 1499 1500 1501 1502 1502 1503 1504 1505 1506 1507 1508 1509 1509 1511 1512 1513 1513 1514 1515 1516 1516 1517 1518 1518 1518
1509 1508 1507 1507 1506 1506 1505 1504 1504 1503 1502 1502 1501 1500 1500 1499 1500 1500 1501 1502 1502 1503 1504 1505 1506 1507 1507 1508 1509 1510 1511 1511 1512 1513 1514 1515 1516 1516 1517 1517 1518 1519 1519
1510 1509 1509 1508 1508 1507 1507 1506 1505 1505 1504 1504 1503 1502 1502 1502 1502 1502 1502 1503 1504 1504 1505 1506 1507 1508 1508 1509 1510 1511 1511 1512 1513 1513 1514 1515 1516 1517 1517 1518 1519 1519 1520
1511 1511 1510 1510 1510 1509 1509 1508 1507 1507 1506 1506 1505 1505 1504 1504 1504 1504 1504 1505 1505 1506 1507 1507 1508 1509 1510 1510 1511 1511 1512 1513 1514 1514 1515 1516 1517 1517 1518 1518 1519 1519 1520
1513 1513 1512 1512 1511 1511 1511 1510 1510 1509 1509 1508 1507 1507 1506 1506 1505 1505 1506 1506 1507 1507 1508 1509 1509 1510 1511 1511 1512 1512 1513 1514 1514 1515 1516 1516 1517 1518 1518 1518 1519 1520 1520
1514 1514 1514 1513 1513 1513 1513 1512 1512 1511 1511 1510 1509 1509 1508 1507 1506 1506 1507 1508 1508 1509 1510 1510 1511 1511 1512 1513 1513 1514 1514 1515 1515 1516 1517 1517 1518 1518 1518 1518 1519 1519 1520
1516 1515 1515 1515 1515 1515 1515 1514 1514 1513 1513 1512 1512 1511 1510 1509 1507 1507 1508 1509 1510 1511 1511 1512 1512 1513 1513 1514 1514 1515 1515 1516 1516 1517 1517 1518 1518 1518 1519 1519 1519 1519 1520
1517 1517 1517 1517 1517 1517 1516 1516 1516 1515 1515 1514 1513 1513 1511 1510 1508 1507 1509 1510 1512 1512 1513 1513 1514 1514 1515 1515 1516 1516 1516 1516 1517 1518 1518 1518 1519 1519 1519 1519 1519 1519 1519
1518 1518 1518 1518 1518 1518 1518 1518 1518 1517 1517 1516 1516 1515 1514 1512 1510 1510 1511 1513 1514 1514 1515 1515 1515 1516 1516 1516 1517 1517 1517 1517 1518 1518 1519 1519 1519 1519 1519 1518 1518 1519 1520
1519 1519 1520 1520 1520 1520 1520 1520 1520 1520 1519 1519 1518 1517 1516 1515 1514 1514 1514 1515 1516 1516 1517 1517 1517 1517 1517 1518 1518 1518 1518 1519 1519 1519 1520 1520 1520 1519 1519 1519 1519 1520 1521
1520 1521 1521 1521 1521 1522 1522 1521 1522 1521 1521 1521 1520 1520 1519 1518 1517 1517 1517 1518 1518 1519 1519 1519 1519 1519 1519 1520 1520 1520 1520 1520 1520 1521 1521 1520 1520 1520 1520 1520 1520 1521 1521
1521 1521 1522 1522 1523 1523 1523 1523 1523 1523 1523 1523 1522 1522 1521 1521 1520 1520 1520 1521 1521 1521 1521 1521 1521 1521 1521 1522 1522 1522 1522 1522 1522 1522 1521 1521 1521 1521 1521 1521 1521 1521 1522
1521 1522 1522 1523 1524 1524 1524 1524 1525 1525 1525 1524 1524 1524 1523 1523 1523 1523 1523 1523 1523 1523 1524 1523 1523 1523 1523 1523 1524 1524 1524 1524 1524 1523 1523 1523 1523 1523 1522 1522 1523 1523 1523
1521 1522 1523 1523 1524 1525 1525 1526 1526 1526 1526 1526 1526 1526 1525 1525 1525 1525 1525 1525 1525 1525 1525 1525 1525 1525 1525 1525 1525 1525 1525 1525 1525 1525 1524 1524 1524 1524 1524 1524 1524 1524 1524
1521 1522 1523 1524 1524 1525 1526 1526 1527 1527 1528 1528 1528 1527 1527 1527 1527 1527 1527 1527 1527 1527 1527 1527 1527 1527 1527 1527 1527 1527 1527 1527 1527 1526 1526 1526 1525 1525 1525 1525 1525 1526 1526
1521 1522 1523 1523 1524 1525 1526 1527 1528 1528 1529 1529 1529 1529 1529 1529 1529 1529 1529 1529 1529 1529 1529 1529 1528 1528 1528 1528 1528 1528 1528 1528 1528 1527 1527 1527 1527 1527 1527 1527 1527 1527 1527
1521 1522 1522 1523 1524 1525 1526 1527 1528 1529 1529 1530 1530 1530 1530 1530 1530 1530 1530 1530 1530 1530 1530 1530 1530 1530 1530 1530 1529 1529 1529 1529 1529 1529 1529 1528 1528 1528 1528 1528 1528 1528 1528
1520 1521 1522 1523 1524 1525 1526 1527 1528 1528 1529 1530 1530 1531 1531 1531 1531 1531 1531 1531 1531 1531 1531 1531 1531 1531 1531 1531 1531 1531 1531 1531 1531 1530 1530 1530 1529 1529 1529 1529 1529 1529 1529
1519 1520 1521 1522 1524 1525 1526 1527 1528 1529 1530 1530 1531 1531 1532 1532 1532 1532 1532 1532 1532 1532 1532 1532 1532 1532 1532 1532 1532 1531 1532 1534 1532 1532 1532 1531 1531 1530 1530 1530 1530 1530 1530
1517 1518 1520 1521 1523 1524 1526 1527 1528 1529 1530 1530 1531 1531 1532 1532 1532 1532 1533 1533 1533 1533 1533 1533 1533 1533 1533 1533 1533 1533 1533 1533 1533 1534 1533 1532 1532 1532 1531 1531 1531 1531 1530
1516 1517 1519 1521 1522 1524 1525 1526 1527 1527 1528 1529 1530 1531 1532 1532 1532 1532 1533 1533 1533 1533 1533 1533 1533 1533 1534 1533 1533 1534 1534 1534 1534 1534 1534 1533 1533 1532 1532 1531 1531 1531 1531
1514 1516 1518 1520 1521 1523 1524 1525 1526 1527 1528 1529 1530 1531 1531 1532 1532 1532 1532 1533 1533 1533 1533 1533 1534 1534 1534 1534 1534 1534 1534 1534 1534 1534 1534 1534 1533 1533 1532 1532 1532 1532 1532
1513 1515 1517 1518 1520 1521 1523 1524 1525 1526 1527 1528 1529 1530 1530 1531 1531 1532 1532 1532 1532 1533 1533 1533 1534 1534 1534 1534 1534 1534 1534 1534 1534 1534 1534 1533 1533 1533 1533 1533 1533 1532 1532